Miscellaneous Local Product
Issued by NWS Hastings, NE

Home | Current Version | Previous Version | Graphics & Text | Print | Product List | Glossary On
Versions: 1 2 3 4 5 6 7 8 9 10 11 12 13 14 15 16 17 18 19 20 21 22 23 24 25 26 27 28 29 30 31 32 33 34 35 36 37 38 39 40 41 42 43 44 45 46 47 48 49 50
502
AXUS43 KGID 091902
MISGRI

GID CWA HOURLY WEATHER ROUNDUP
NATIONAL WEATHER SERVICE HASTINGS NE
100 PM CST SAT DEC 09 2017

NOTE: "FAIR" INDICATES FEW OR NO CLOUDS BELOW 12,000 FEET WITH NO
SIGNIFICANT WEATHER AND/OR OBSTRUCTIONS TO VISIBILITY.

...SOUTH CENTRAL NEBRASKA...

CITY           SKY/WX    TMP DP  RH WIND       PRES   REMARKS
GRAND ISLAND   SUNNY     43  25  49 NW14      30.19F
KEARNEY        SUNNY     45  22  40 N15       30.20F
HASTINGS       SUNNY     44  24  45 NW14      30.19F
ORD            SUNNY     43  24  47 NW13      30.17F
YORK           SUNNY     39  25  56 N10       30.20F WCI  32
AURORA         SUNNY     42  24  48 N15       30.18F
LEXINGTON      SUNNY     49  19  30 NW13      30.20F
HOLDREGE       SUNNY     46  24  40 NW9G17    30.20F
HEBRON         SUNNY     43  24  47 N14       30.21F

...NEBRASKA PANHANDLE...

CITY           SKY/WX    TMP DP  RH WIND       PRES   REMARKS
CHADRON        SUNNY     55  11  17 NW25G37   30.21F
ALLIANCE       SUNNY     55   9  16 NW26G33   30.21F
SCOTTSBLUFF    SUNNY     56   9  15 NW20G28   30.27F
SIDNEY         SUNNY     56   7  14 N29G39    30.25F

...WESTERN AND NORTH CENTRAL NEBRASKA...

CITY           SKY/WX    TMP DP  RH WIND       PRES   REMARKS
VALENTINE      SUNNY     47  21  35 W13       30.16F
AINSWORTH      SUNNY     42  23  46 NW14      30.16F
ONEILL         SUNNY     39  27  62 NW8       30.16F WCI  33
BROKEN BOW     SUNNY     46  22  38 NW15      30.18F
IMPERIAL       SUNNY     55  12  18 N15G22    30.24F
NORTH PLATTE   SUNNY     54  17  23 N14G26    30.20F
MCCOOK         SUNNY     53  17  24 N16       30.23F

...EASTERN NEBRASKA...

CITY           SKY/WX    TMP DP  RH WIND       PRES   REMARKS
NORFOLK        SUNNY     35  23  61 NW14      30.15F WCI  26
SO SIOUX CITY  SUNNY     32  20  61 NW13      30.17F WCI  22
TEKAMAH        SUNNY     34  19  54 NW10G20   30.18F WCI  26
COLUMBUS       SUNNY     37  23  56 NW15      30.19F WCI  28
ALBION         SUNNY     41  23  49 N12       30.17F
OMAHA EPPLEY   MOSUNNY   33  18  53 NW12      30.19F WCI  24
OFFUTT AFB     MOSUNNY   34  19  53 NW10      30.18F WCI  26
MILLARD        PTSUNNY   34  21  59 NW10      30.19F WCI  26
LINCOLN        SUNNY     39  22  50 N17       30.20F WCI  30
NEBRASKA CITY  SUNNY     36  23  59 NW9       30.18F WCI  29
BEATRICE       SUNNY     41  23  49 N18       30.20S
FALLS CITY     SUNNY     36  19  50 NW13G20   30.18S WCI  27

...NORTHERN KANSAS...

CITY           SKY/WX    TMP DP  RH WIND       PRES   REMARKS
GOODLAND       SUNNY     54  12  18 N20G31    30.25F
HILL CITY      SUNNY     52  19  27 N14G23    30.25F
NORTON         CLEAR     52  10  19 NW16      30.21F
PHILLIPSBURG   SUNNY     52  19  28 NW12G17   30.23F
SMITH CENTER   MOSUNNY   46  21  36 NW12G21   30.22F
HAYS           SUNNY     51  21  30 NW14      30.24F
RUSSELL        SUNNY     51  23  33 NW21      30.22F
CONCORDIA      SUNNY     46  23  40 NW13      30.21F
SALINA         SUNNY     50  25  37 NW17      30.22F
TOPEKA         SUNNY     43  22  43 NW17G24   30.19F



USA.gov is the U.S. government's official web portal to all federal, state and local government web resources and services.